EW1669 Weather Reports


Display with metric or nautical units.
time (UTC)temp
F
wind
direction
speed
MPH
gust
MPH
rain 1hr
in
rain 24hr
in
rain mn
in
humidity
%
barometer
mb
20260504050731 58 197 0.0 0.0 0.00 0.00 0.00 59 1015.0
20260504050228 58 195 0.0 0.0 0.00 0.00 0.00 59 1015.6
20260504045725 58 192 0.0 0.0 0.00 0.00 0.00 58 1015.3
20260504045208 59 188 0.0 0.0 0.00 0.00 0.00 57 1015.3
20260504044709 59 153 0.0 2.0 0.00 0.00 0.00 57 1015.3
20260504044427 59 149 0.0 2.0 0.00 0.00 0.00 56 1015.3
20260504043708 60 152 0.0 0.0 0.00 0.00 0.00 55 1015.3
20260504043210 60 152 0.0 0.0 0.00 0.00 0.00 54 1015.3
20260504042708 60 147 0.0 0.0 0.00 0.00 0.00 54 1015.3
20260504042206 60 159 0.0 1.0 0.00 0.00 0.00 53 1015.3
20260504041657 61 160 0.0 1.0 0.00 0.00 0.00 52 1015.3
20260504041623 61 147 0.0 1.0 0.00 0.00 0.00 51 1015.3
20260504040632 62 144 0.0 7.0 0.00 0.00 0.00 50 1015.3
20260504040110 61 139 0.0 7.0 0.00 0.00 0.00 50 1015.3
20260504035607 61 148 0.0 1.0 0.00 0.00 0.00 49 1015.6
20260504035108 62 162 0.0 0.0 0.00 0.00 0.00 49 1015.3
20260504034608 62 154 0.0 0.0 0.00 0.00 0.00 48 1015.6
20260504034107 62 162 0.0 0.0 0.00 0.00 0.00 48 1015.6
20260504033607 62 145 0.0 2.0 0.00 0.00 0.00 47 1015.6
20260504033107 62 164 0.0 2.0 0.00 0.00 0.00 47 1015.6
20260504032602 63 162 0.0 0.0 0.00 0.00 0.00 46 1015.3
20260504032048 63 185 0.0 1.0 0.00 0.00 0.00 45 1015.3
20260504031537 64 145 0.0 1.0 0.00 0.00 0.00 44 1015.3
20260504031025 64 149 0.0 3.0 0.00 0.00 0.00 44 1015.3
20260504030508 64 146 0.0 3.0 0.00 0.00 0.00 43 1015.3
20260504030000 65 139 0.0 3.0 0.00 0.00 0.00 42 1015.3
20260504025448 65 171 0.0 3.0 0.00 0.00 0.00 42 1015.0
20260504024937 65 200 0.0 0.0 0.00 0.00 0.00 42 1015.0
20260504024424 65 144 0.0 4.0 0.00 0.00 0.00 42 1015.0
20260504023909 65 187 0.0 4.0 0.00 0.00 0.00 41 1015.0
20260504023405 65 184 0.0 6.0 0.00 0.00 0.00 40 1015.3
20260504023155 66 211 0.0 6.0 0.00 0.00 0.00 40 1015.0
20260504023053 66 166 0.0 6.0 0.00 0.00 0.00 39 1015.0
20260504022055 66 178 0.0 8.0 0.00 0.00 0.00 39 1015.3
20260504021323 67 202 0.0 8.0 0.00 0.00 0.00 39 1015.0
20260504020809 67 158 0.0 8.0 0.00 0.00 0.00 37 1015.0
20260504020309 67 232 4.0 8.0 0.00 0.00 0.00 37 1014.6
20260504015805 68 207 1.0 6.0 0.00 0.00 0.00 35 1014.6
20260504015519 68 219 0.0 6.0 0.00 0.00 0.00 35 1014.6
20260504014744 69 195 0.0 7.0 0.00 0.00 0.00 35 1014.6
20260504014234 69 178 0.0 7.0 0.00 0.00 0.00 34 1014.3
20260504013723 69 189 2.0 6.0 0.00 0.00 0.00 33 1014.6
20260504013208 69 206 1.0 4.0 0.00 0.00 0.00 33 1014.6
20260504012703 70 222 2.0 6.0 0.00 0.00 0.00 32 1014.3
20260504012149 70 201 0.0 9.0 0.00 0.00 0.00 31 1015.0
20260504011639 70 223 0.0 9.0 0.00 0.00 0.00 31 1014.6
20260504011348 71 226 0.0 9.0 0.00 0.00 0.00 30 1015.0
20260504010832 71 198 4.0 9.0 0.00 0.00 0.00 30 1015.0
20260504010108 71 244 3.0 9.0 0.00 0.00 0.00 30 1015.0
20260504005556 71 212 1.0 9.0 0.00 0.00 0.00 30 1015.0
20260504005042 71 198 0.0 9.0 0.00 0.00 0.00 30 1015.0
20260504004531 71 192 1.0 11.0 0.00 0.00 0.00 30 1015.0
20260504004018 71 204 0.0 11.0 0.00 0.00 0.00 29 1015.0
20260504003507 71 131 0.0 11.0 0.00 0.00 0.00 30 1015.3
20260504003009 71 200 2.0 11.0 0.00 0.00 0.00 30 1015.0
20260504002948 72 219 4.0 11.0 0.00 0.00 0.00 29 1015.3
20260504002002 72 194 3.0 11.0 0.00 0.00 0.00 28 1015.3
20260504001449 72 223 2.0 11.0 0.00 0.00 0.00 28 1015.3
20260504001200 72 208 0.0 11.0 0.00 0.00 0.00 28 1015.6
20260504000906 72 202 0.0 10.0 0.00 0.00 0.00 28 1015.0
20260503235909 72 223 2.0 10.0 0.00 0.00 0.00 28 1015.3
20260503235358 72 208 0.0 10.0 0.00 0.00 0.00 27 1015.3
20260503234845 73 178 6.0 8.0 0.00 0.00 0.00 27 1015.3
20260503234345 72 191 0.0 6.0 0.00 0.00 0.00 28 1015.6
20260503233840 73 215 0.0 15.0 0.00 0.00 0.00 28 1015.6
20260503233600 73 192 0.0 15.0 0.00 0.00 0.00 28 1015.6
20260503232825 73 198 0.0 14.0 0.00 0.00 0.00 28 1015.6
20260503232309 73 201 3.0 14.0 0.00 0.00 0.00 27 1015.6
20260503231756 72 181 0.0 14.0 0.00 0.00 0.00 29 1015.6
20260503231256 73 227 0.0 9.0 0.00 0.00 0.00 28 1015.6
20260503230741 72 208 0.0 15.0 0.00 0.00 0.00 26 1015.6
20260503230236 72 226 2.0 15.0 0.00 0.00 0.00 27 1015.6
20260503225734 72 198 0.0 13.0 0.00 0.00 0.00 27 1015.6
20260503225435 72 214 2.0 16.0 0.00 0.00 0.00 27 1016.0
20260503224927 72 198 3.0 16.0 0.00 0.00 0.00 28 1016.0
20260503224150 72 193 4.0 13.0 0.00 0.00 0.00 28 1016.0
20260503223637 72 196 4.0 14.0 0.00 0.00 0.00 28 1016.0
20260503223137 73 228 0.0 16.0 0.00 0.00 0.00 28 1016.3
20260503222635 73 231 10.0 16.0 0.00 0.00 0.00 28 1016.0
20260503222134 74 197 9.0 16.0 0.00 0.00 0.00 27 1016.0
20260503221839 73 152 0.0 16.0 0.00 0.00 0.00 29 1016.3
20260503221108 73 138 9.0 14.0 0.00 0.00 0.00 29 1016.3
20260503220555 74 220 4.0 15.0 0.00 0.00 0.00 28 1016.3
20260503220041 74 227 8.0 15.0 0.00 0.00 0.00 29 1016.7
20260503215529 74 237 5.0 9.0 0.00 0.00 0.00 29 1016.3
20260503215009 74 220 0.0 10.0 0.00 0.00 0.00 29 1016.7
20260503214707 74 199 0.0 13.0 0.00 0.00 0.00 28 1016.7
20260503214554 74 243 1.0 13.0 0.00 0.00 0.00 29 1017.0
20260503213503 74 217 4.0 11.0 0.00 0.00 0.00 27 1017.0
20260503213002 74 212 0.0 11.0 0.00 0.00 0.00 28 1016.7
20260503212446 73 198 1.0 14.0 0.00 0.00 0.00 29 1017.0
20260503211933 72 213 3.0 14.0 0.00 0.00 0.00 29 1017.3
20260503211433 73 254 0.0 14.0 0.00 0.00 0.00 30 1017.3
20260503210919 73 210 9.0 14.0 0.00 0.00 0.00 30 1017.3
20260503210408 72 211 1.0 15.0 0.00 0.00 0.00 29 1017.3
20260503205908 72 191 6.0 15.0 0.00 0.00 0.00 28 1017.3
20260503205407 74 235 7.0 13.0 0.00 0.00 0.00 27 1017.7
20260503204907 74 203 1.0 11.0 0.00 0.00 0.00 26 1017.3
20260503204402 74 220 1.0 11.0 0.00 0.00 0.00 27 1017.3
20260503203837 74 217 4.0 9.0 0.00 0.00 0.00 26 1018.0
20260503203325 74 207 3.0 11.0 0.00 0.00 0.00 27 1018.0
20260503202817 74 220 2.0 11.0 0.00 0.00 0.00 25 1018.3
20260503202307 74 225 8.0 15.0 0.00 0.00 0.00 26 1018.0
20260503201809 74 175 4.0 15.0 0.00 0.00 0.00 26 1018.3
20260503201301 74 201 0.0 15.0 0.00 0.00 0.00 26 1018.3
20260503200751 74 181 3.0 15.0 0.00 0.00 0.00 25 1018.3
20260503200240 74 218 3.0 15.0 0.00 0.00 0.00 25 1018.7
20260503195951 73 188 1.0 15.0 0.00 0.00 0.00 26 1019.0
20260503195219 73 197 2.0 11.0 0.00 0.00 0.00 28 1018.7
20260503194708 73 164 2.0 13.0 0.00 0.00 0.00 28 1018.7
20260503194208 73 215 6.0 13.0 0.00 0.00 0.00 28 1018.7
20260503193706 73 156 4.0 11.0 0.00 0.00 0.00 28 1018.7
20260503193157 72 206 6.0 16.0 0.00 0.00 0.00 26 1018.7
20260503192645 72 178 7.0 16.0 0.00 0.00 0.00 27 1019.0
20260503192356 73 124 1.0 13.0 0.00 0.00 0.00 27 1019.0
20260503191625 73 190 0.0 13.0 0.00 0.00 0.00 27 1019.0
20260503191325 73 223 0.0 8.0 0.00 0.00 0.00 29 1019.4
20260503190608 72 217 2.0 11.0 0.00 0.00 0.00 29 1019.4
20260503190108 72 209 0.0 14.0 0.00 0.00 0.00 27 1019.4
20260503185557 71 220 1.0 13.0 0.00 0.00 0.00 29 1019.4
20260503185045 70 229 4.0 11.0 0.00 0.00 0.00 29 1019.4
20260503184535 71 209 2.0 7.0 0.00 0.00 0.00 30 1019.7
20260503184024 70 184 0.0 13.0 0.00 0.00 0.00 33 1020.0
20260503183725 69 208 1.0 13.0 0.00 0.00 0.00 33 1019.7
20260503183008 70 204 3.0 11.0 0.00 0.00 0.00 33 1020.0
20260503182508 70 194 1.0 11.0 0.00 0.00 0.00 34 1019.7
20260503182008 69 203 1.0 11.0 0.00 0.00 0.00 34 1020.0
20260503181733 69 149 2.0 13.0 0.00 0.00 0.00 34 1020.0
20260503181008 69 180 0.0 13.0 0.00 0.00 0.00 35 1020.0
20260503180505 68 145 0.0 8.0 0.00 0.00 0.00 36 1020.0
20260503175955 69 141 1.0 13.0 0.00 0.00 0.00 37 1020.4
20260503175444 68 213 4.0 13.0 0.00 0.00 0.00 36 1020.4
20260503174934 68 211 5.0 11.0 0.00 0.00 0.00 37 1020.7
20260503174423 68 236 0.0 11.0 0.00 0.00 0.00 37 1020.4
20260503173909 68 202 1.0 11.0 0.00 0.00 0.00 38 1020.7
20260503173621 68 200 1.0 13.0 0.00 0.00 0.00 38 1020.7
20260503172850 68 188 0.0 13.0 0.00 0.00 0.00 39 1020.7
20260503172348 67 220 2.0 14.0 0.00 0.00 0.00 39 1020.7
20260503171843 67 181 1.0 14.0 0.00 0.00 0.00 39 1020.7
20260503171333 67 214 4.0 10.0 0.00 0.00 0.00 40 1021.1
20260503170822 68 209 1.0 11.0 0.00 0.00 0.00 41 1020.7
20260503170321 67 197 2.0 11.0 0.00 0.00 0.00 40 1021.1
20260503160121 64 194 11.0 13.0 0.00 0.00 0.00 47 1021.7
20260503150936 60 191 7.0 15.0 0.00 0.00 0.00 55 1021.7
20260503150422 60 213 5.0 15.0 0.00 0.00 0.00 57 1021.4
20260503140208 54 213 0.0 9.0 0.00 0.00 0.00 69 1021.7
20260503131022 49 203 0.0 6.0 0.00 0.00 0.00 79 1022.1
20260503130507 49 203 0.0 6.0 0.00 0.00 0.00 80 1021.7
20260503110205 45 200 0.0 0.0 0.00 0.01 0.00 83 1021.1
20260503090337 46 199 0.0 0.0 0.00 0.01 0.00 80 1021.7
20260503081155 47 199 0.0 0.0 0.00 0.01 0.00 78 1021.7
20260503080907 47 199 0.0 0.0 0.00 0.01 0.00 77 1021.7
20260503080132 48 199 0.0 0.0 0.00 0.01 0.00 77 1021.7
20260503072507 48 199 0.0 0.0 0.00 0.01 0.00 77 1022.1
20260503072230 48 199 0.0 0.0 0.00 0.01 0.00 77 1022.1
20260503071459 48 199 0.0 0.0 0.00 0.01 0.00 77 1022.1
20260503071207 48 199 0.0 0.0 0.00 0.01 0.00 76 1022.1
20260503070435 49 199 0.0 0.0 0.00 0.01 0.00 76 1022.1